Location: Julian California
(33.0790°N, 116.6010°W)
Time: 23:15:00
(UTC-07:00)

GPS 2-04 Rocket1 - Pass Details

Date: 12 July 2018
Orbit: 421 x 559 km, 35.6° (Epoch: 15 July)

Event Time Altitude Azimuth Distance (km) Brightness Sun altitude
Rises 21:35:18 0° 282° (WNW) 2,474 7.2 -17.8°
Reaches altitude 10° 21:37:29 10° 276° (W) 1,623 6.0 -18.1°
Maximum altitude 21:41:02 44° 203° (SSW) 675 3.1 -18.6°
Enters shadow 21:41:29 42° 182° (S) 702 3.0 -18.7°
